Location: Ladd Observatory
(41.8387°N, 71.3996°W)
Time: 06:45:15
(UTC-05:00)

ISS - Visible Passes

Search period start: 27 November 2014 00:00
Search period end: 07 December 2014 00:00
Orbit: 407 x 417 km, 51.6° (Epoch: 27 November)

Date Brightness Start Highest point End Pass type
(mag) Time Alt. Az. Time Alt. Az. Time Alt. Az.
27 Nov -3.3 05:14:57 52° W 05:15:34 68° SW 05:18:50 10° SE visible
28 Nov -1.1 04:27:26 26° ESE 04:27:26 26° ESE 04:29:02 10° ESE visible
28 Nov -1.1 06:00:16 10° W 06:02:01 14° SW 06:03:52 10° SSW visible
29 Nov -1.8 05:12:47 24° SSW 05:12:47 24° SSW 05:15:07 10° SSE visible
30 Nov -0.3 04:25:22 13° SSE 04:25:22 13° SSE 04:25:44 10° SSE visible
06 Dec -0.9 17:39:39 10° SSE 17:40:21 11° SE 17:40:21 11° SE visible
